Time,TemperatureF,DewpointF,PressureIn,WindDirection,WindDirectionDegrees,WindSpeedMPH,WindSpeedGustMPH,Humidity,HourlyPrecipIn,Conditions,Clouds,dailyrainin,SoftwareType,DateUTC
2013-09-17 00:01:00,37.7,32.7,30.49,NW,316,0.0,0.0,82,0.00,,SKC,0.00,VWS V13.01,2013-09-17 04:01:00,
2013-09-17 00:06:00,37.7,33.0,30.48,NW,316,0.0,0.0,83,0.00,,SKC,0.00,VWS V13.01,2013-09-17 04:06:00,
2013-09-17 00:11:00,37.5,32.8,30.48,NW,316,0.0,0.0,83,0.00,,SKC,0.00,VWS V13.01,2013-09-17 04:11:00,
2013-09-17 00:16:00,37.5,32.8,30.48,NW,316,0.0,0.0,83,0.00,,SKC,0.00,VWS V13.01,2013-09-17 04:16:00,
2013-09-17 00:21:00,37.5,32.8,30.48,NW,316,0.0,0.0,83,0.00,,SKC,0.00,VWS V13.01,2013-09-17 04:21:00,
2013-09-17 00:26:00,37.4,32.7,30.49,NW,316,0.0,0.0,83,0.00,,SKC,0.00,VWS V13.01,2013-09-17 04:26:00,
2013-09-17 00:31:00,37.2,32.5,30.49,NW,316,0.0,0.0,83,0.00,,SKC,0.00,VWS V13.01,2013-09-17 04:31:00,
2013-09-17 00:36:00,37.2,32.5,30.49,NW,316,0.0,0.0,83,0.00,,SKC,0.00,VWS V13.01,2013-09-17 04:36:00,
2013-09-17 00:41:00,37.2,32.8,30.49,NW,316,0.0,0.0,84,0.00,,SKC,0.00,VWS V13.01,2013-09-17 04:41:00,
2013-09-17 00:46:00,37.2,32.8,30.50,NW,316,0.0,0.0,84,0.00,,SKC,0.00,VWS V13.01,2013-09-17 04:46:00,
2013-09-17 00:51:00,37.2,32.8,30.50,NW,316,0.0,0.0,84,0.00,,SKC,0.00,VWS V13.01,2013-09-17 04:51:00,
2013-09-17 00:56:00,37.0,32.6,30.50,NW,316,0.0,0.0,84,0.00,,SKC,0.00,VWS V13.01,2013-09-17 04:56:00,
2013-09-17 01:01:00,37.0,32.6,30.50,NW,316,0.0,0.0,84,0.00,,SKC,0.00,VWS V13.01,2013-09-17 05:01:00,
2013-09-17 01:06:00,37.0,32.6,30.50,NW,316,0.0,0.0,84,0.00,,SKC,0.00,VWS V13.01,2013-09-17 05:06:00,
2013-09-17 01:11:00,37.0,32.6,30.50,NW,316,0.0,0.0,84,0.00,,SKC,0.00,VWS V13.01,2013-09-17 05:11:00,
2013-09-17 01:16:00,36.6,32.2,30.51,NW,316,0.0,0.0,84,0.00,,SKC,0.00,VWS V13.01,2013-09-17 05:16:00,
2013-09-17 01:21:00,36.6,32.2,30.51,NW,316,0.0,0.0,84,0.00,,SKC,0.00,VWS V13.01,2013-09-17 05:21:00,
2013-09-17 01:26:00,36.6,32.2,30.51,NW,316,0.0,0.0,84,0.00,,SKC,0.00,VWS V13.01,2013-09-17 05:26:00,
2013-09-17 01:31:00,36.5,32.4,30.51,NW,316,0.0,0.0,85,0.00,,SKC,0.00,VWS V13.01,2013-09-17 05:31:00,
2013-09-17 01:36:00,36.5,32.4,30.51,NW,316,0.0,0.0,85,0.00,,SKC,0.00,VWS V13.01,2013-09-17 05:36:00,
2013-09-17 01:41:00,36.3,32.2,30.52,NW,316,0.0,0.0,85,0.00,,SKC,0.00,VWS V13.01,2013-09-17 05:41:00,
2013-09-17 01:46:00,36.3,32.2,30.51,NW,316,0.0,0.0,85,0.00,,SKC,0.00,VWS V13.01,2013-09-17 05:46:00,
2013-09-17 01:51:00,36.3,32.2,30.52,NW,316,0.0,0.0,85,0.00,,SKC,0.00,VWS V13.01,2013-09-17 05:51:00,
2013-09-17 01:56:00,36.3,32.2,30.52,NW,316,0.0,0.0,85,0.00,,SKC,0.00,VWS V13.01,2013-09-17 05:56:00,
2013-09-17 02:01:00,36.3,32.2,30.51,NW,316,0.0,0.0,85,0.00,,SKC,0.00,VWS V13.01,2013-09-17 06:01:00,
2013-09-17 02:06:00,36.1,32.0,30.51,NW,316,0.0,0.0,85,0.00,,SKC,0.00,VWS V13.01,2013-09-17 06:06:00,
2013-09-17 02:11:00,36.1,32.0,30.51,NW,316,0.0,0.0,85,0.00,,SKC,0.00,VWS V13.01,2013-09-17 06:11:00,
2013-09-17 02:16:00,36.1,32.0,30.51,NW,316,0.0,0.0,85,0.00,,SKC,0.00,VWS V13.01,2013-09-17 06:16:00,
2013-09-17 02:21:00,36.1,32.0,30.51,NW,316,0.0,0.0,85,0.00,,SKC,0.00,VWS V13.01,2013-09-17 06:21:00,
2013-09-17 02:27:00,35.9,31.8,30.51,NW,316,0.0,0.0,85,0.00,,SKC,0.00,VWS V13.01,2013-09-17 06:27:00,
2013-09-17 02:32:00,35.9,31.8,30.51,NW,316,0.0,0.0,85,0.00,,SKC,0.00,VWS V13.01,2013-09-17 06:32:00,
2013-09-17 02:37:00,35.7,31.6,30.51,NW,316,0.0,0.0,85,0.00,,SKC,0.00,VWS V13.01,2013-09-17 06:37:00,
2013-09-17 02:42:00,35.7,31.9,30.51,NW,316,0.0,0.0,86,0.00,,SKC,0.00,VWS V13.01,2013-09-17 06:42:00,
2013-09-17 02:47:00,35.7,31.9,30.52,NW,316,0.0,0.0,86,0.00,,SKC,0.00,VWS V13.01,2013-09-17 06:47:00,
2013-09-17 02:52:00,35.6,31.8,30.52,NW,316,0.0,0.0,86,0.00,,SKC,0.00,VWS V13.01,2013-09-17 06:52:00,
2013-09-17 02:57:00,35.4,31.6,30.52,NW,316,0.0,0.0,86,0.00,,SKC,0.00,VWS V13.01,2013-09-17 06:57:00,
2013-09-17 03:02:00,35.4,31.6,30.52,NW,316,0.0,0.0,86,0.00,,SKC,0.00,VWS V13.01,2013-09-17 07:02:00,
2013-09-17 03:07:00,35.4,31.6,30.52,NW,316,0.0,0.0,86,0.00,,SKC,0.00,VWS V13.01,2013-09-17 07:07:00,
2013-09-17 03:12:00,35.4,31.6,30.52,NW,316,0.0,0.0,86,0.00,,SKC,0.00,VWS V13.01,2013-09-17 07:12:00,
2013-09-17 03:17:00,35.4,31.6,30.52,NW,316,0.0,0.0,86,0.00,,SKC,0.00,VWS V13.01,2013-09-17 07:17:00,
2013-09-17 03:22:00,35.4,31.6,30.52,NW,316,0.0,0.0,86,0.00,,SKC,0.00,VWS V13.01,2013-09-17 07:22:00,
2013-09-17 03:27:00,35.4,31.6,30.52,NW,316,0.0,0.0,86,0.00,,SKC,0.00,VWS V13.01,2013-09-17 07:27:00,
2013-09-17 03:32:00,35.4,31.6,30.52,NW,316,0.0,0.0,86,0.00,,SKC,0.00,VWS V13.01,2013-09-17 07:32:00,
2013-09-17 03:37:00,35.4,31.6,30.53,NW,316,0.0,0.0,86,0.00,,SKC,0.00,VWS V13.01,2013-09-17 07:37:00,
2013-09-17 03:42:00,35.4,31.6,30.52,NW,316,0.0,0.0,86,0.00,,SKC,0.00,VWS V13.01,2013-09-17 07:42:00,
2013-09-17 03:47:00,35.4,31.6,30.53,NW,316,0.0,0.0,86,0.00,,SKC,0.00,VWS V13.01,2013-09-17 07:47:00,
2013-09-17 03:52:00,35.2,31.4,30.53,NW,316,0.0,0.0,86,0.00,,SKC,0.00,VWS V13.01,2013-09-17 07:52:00,
2013-09-17 03:57:00,35.2,31.4,30.53,NW,316,0.0,0.0,86,0.00,,SKC,0.00,VWS V13.01,2013-09-17 07:57:00,
2013-09-17 04:02:00,35.2,31.4,30.53,NW,316,0.0,0.0,86,0.00,,SKC,0.00,VWS V13.01,2013-09-17 08:02:00,
2013-09-17 04:07:00,35.2,31.4,30.53,NW,316,0.0,0.0,86,0.00,,SKC,0.00,VWS V13.01,2013-09-17 08:07:00,
2013-09-17 04:12:00,35.2,31.4,30.53,NW,316,0.0,0.0,86,0.00,,SKC,0.00,VWS V13.01,2013-09-17 08:12:00,
2013-09-17 04:17:00,35.0,31.2,30.53,NW,316,0.0,0.0,86,0.00,,SKC,0.00,VWS V13.01,2013-09-17 08:17:00,
2013-09-17 04:22:00,34.8,31.0,30.53,NW,316,0.0,0.0,86,0.00,,SKC,0.00,VWS V13.01,2013-09-17 08:22:00,
2013-09-17 04:27:00,34.8,31.0,30.53,NW,316,0.0,0.0,86,0.00,,SKC,0.00,VWS V13.01,2013-09-17 08:27:00,
2013-09-17 04:32:00,34.8,31.0,30.53,NW,316,0.0,0.0,86,0.00,,SKC,0.00,VWS V13.01,2013-09-17 08:32:00,
2013-09-17 04:37:00,34.8,31.3,30.53,NW,316,0.0,0.0,87,0.00,,SKC,0.00,VWS V13.01,2013-09-17 08:37:00,
2013-09-17 04:42:00,34.7,31.2,30.53,NW,316,0.0,0.0,87,0.00,,SKC,0.00,VWS V13.01,2013-09-17 08:42:00,
2013-09-17 04:47:00,34.7,31.0,30.54,NW,316,0.0,0.0,86,0.00,,SKC,0.00,VWS V13.01,2013-09-17 08:47:00,
2013-09-17 04:52:00,34.5,30.8,30.54,NW,316,0.0,0.0,86,0.00,,SKC,0.00,VWS V13.01,2013-09-17 08:52:00,
2013-09-17 04:57:00,34.3,30.8,30.54,NW,316,0.0,0.0,87,0.00,,SKC,0.00,VWS V13.01,2013-09-17 08:57:00,
2013-09-17 05:02:00,34.3,30.8,30.54,NW,316,0.0,0.0,87,0.00,,SKC,0.00,VWS V13.01,2013-09-17 09:02:00,
2013-09-17 05:07:00,34.3,30.8,30.55,NW,316,0.0,0.0,87,0.00,,SKC,0.00,VWS V13.01,2013-09-17 09:07:00,
2013-09-17 05:12:00,34.3,30.8,30.55,NW,316,0.0,0.0,87,0.00,,SKC,0.00,VWS V13.01,2013-09-17 09:12:00,
2013-09-17 05:17:00,34.3,30.8,30.55,NW,316,0.0,0.0,87,0.00,,SKC,0.00,VWS V13.01,2013-09-17 09:17:00,
2013-09-17 05:22:00,34.3,30.8,30.55,NW,316,0.0,0.0,87,0.00,,SKC,0.00,VWS V13.01,2013-09-17 09:22:00,
2013-09-17 05:27:00,34.3,30.8,30.55,NW,316,0.0,0.0,87,0.00,,SKC,0.00,VWS V13.01,2013-09-17 09:27:00,
2013-09-17 05:32:00,34.3,30.8,30.55,NW,316,0.0,0.0,87,0.00,,SKC,0.00,VWS V13.01,2013-09-17 09:32:00,
2013-09-17 05:37:00,34.1,30.6,30.55,NW,316,0.0,0.0,87,0.00,,SKC,0.00,VWS V13.01,2013-09-17 09:37:00,
2013-09-17 05:42:00,33.9,30.5,30.55,NW,316,0.0,0.0,87,0.00,,SKC,0.00,VWS V13.01,2013-09-17 09:42:00,
2013-09-17 05:47:00,33.9,30.5,30.56,NW,316,0.0,0.0,87,0.00,,SKC,0.00,VWS V13.01,2013-09-17 09:47:00,
2013-09-17 05:52:00,33.9,30.5,30.56,NW,316,0.0,0.0,87,0.00,,SKC,0.00,VWS V13.01,2013-09-17 09:52:00,
2013-09-17 05:57:00,33.9,30.5,30.56,NW,316,0.0,0.0,87,0.00,,SKC,0.00,VWS V13.01,2013-09-17 09:57:00,
2013-09-17 06:02:00,33.8,30.4,30.56,NW,316,0.0,0.0,87,0.00,,SKC,0.00,VWS V13.01,2013-09-17 10:02:00,
2013-09-17 06:07:00,33.8,30.4,30.56,NW,316,0.0,0.0,87,0.00,,SKC,0.00,VWS V13.01,2013-09-17 10:07:00,
2013-09-17 06:12:00,33.8,30.4,30.57,NW,316,0.0,0.0,87,0.00,,SKC,0.00,VWS V13.01,2013-09-17 10:12:00,
2013-09-17 06:17:00,33.6,30.1,30.57,NW,316,0.0,0.0,87,0.00,,SKC,0.00,VWS V13.01,2013-09-17 10:17:00,
2013-09-17 06:22:00,33.6,30.1,30.57,NW,316,0.0,0.0,87,0.00,,SKC,0.00,VWS V13.01,2013-09-17 10:22:00,
2013-09-17 06:27:00,33.6,30.1,30.57,NW,316,0.0,0.0,87,0.00,,SKC,0.00,VWS V13.01,2013-09-17 10:27:00,
2013-09-17 06:32:00,33.6,30.1,30.58,NW,316,0.0,0.0,87,0.00,,SKC,0.00,VWS V13.01,2013-09-17 10:32:00,
2013-09-17 06:37:00,33.6,30.1,30.58,NW,316,0.0,0.0,87,0.00,,SKC,0.00,VWS V13.01,2013-09-17 10:37:00,
2013-09-17 06:42:00,33.6,30.1,30.58,NW,316,0.0,0.0,87,0.00,,SKC,0.00,VWS V13.01,2013-09-17 10:42:00,
2013-09-17 06:47:00,33.6,30.1,30.58,NW,316,0.0,0.0,87,0.00,,SKC,0.00,VWS V13.01,2013-09-17 10:47:00,
2013-09-17 06:52:00,33.6,30.1,30.58,NW,316,0.0,0.0,87,0.00,,SKC,0.00,VWS V13.01,2013-09-17 10:52:00,
2013-09-17 06:57:00,33.6,30.1,30.59,NW,316,0.0,0.0,87,0.00,,SKC,0.00,VWS V13.01,2013-09-17 10:57:00,
2013-09-17 07:02:00,33.8,30.4,30.59,NW,316,0.0,0.0,87,0.00,,SKC,0.00,VWS V13.01,2013-09-17 11:02:00,
2013-09-17 07:07:00,33.8,30.4,30.59,NW,316,0.0,0.0,87,0.00,,SKC,0.00,VWS V13.01,2013-09-17 11:07:00,
2013-09-17 07:12:00,33.9,30.5,30.59,NW,316,0.0,0.0,87,0.00,,SKC,0.00,VWS V13.01,2013-09-17 11:12:00,
2013-09-17 07:17:00,34.1,30.6,30.60,NW,316,0.0,0.0,87,0.00,,SKC,0.00,VWS V13.01,2013-09-17 11:17:00,
2013-09-17 07:22:00,34.3,30.8,30.60,NW,316,0.0,0.0,87,0.00,,SKC,0.00,VWS V13.01,2013-09-17 11:22:00,
2013-09-17 07:27:00,34.3,30.8,30.59,NW,316,0.0,0.0,87,0.00,,SKC,0.00,VWS V13.01,2013-09-17 11:27:00,
2013-09-17 07:32:00,34.5,31.3,30.59,NW,316,0.0,0.0,88,0.00,,SKC,0.00,VWS V13.01,2013-09-17 11:32:00,
2013-09-17 07:37:00,34.8,31.6,30.59,NW,316,0.0,0.0,88,0.00,,SKC,0.00,VWS V13.01,2013-09-17 11:37:00,
2013-09-17 07:42:00,35.4,32.2,30.59,NW,316,0.0,0.0,88,0.00,,SKC,0.00,VWS V13.01,2013-09-17 11:42:00,
2013-09-17 07:47:00,35.7,32.5,30.60,NW,316,0.0,0.0,88,0.00,,SKC,0.00,VWS V13.01,2013-09-17 11:47:00,
2013-09-17 07:52:00,36.1,32.9,30.59,NW,316,0.0,0.0,88,0.00,,SKC,0.00,VWS V13.01,2013-09-17 11:52:00,
2013-09-17 07:57:00,36.3,33.1,30.59,NW,316,0.0,0.0,88,0.00,,SKC,0.00,VWS V13.01,2013-09-17 11:57:00,
2013-09-17 08:02:00,36.6,33.4,30.59,NW,316,0.0,0.0,88,0.00,,SKC,0.00,VWS V13.01,2013-09-17 12:02:00,
2013-09-17 08:07:00,37.2,34.0,30.60,NW,316,0.0,0.0,88,0.00,,SKC,0.00,VWS V13.01,2013-09-17 12:07:00,
2013-09-17 08:12:00,37.5,34.3,30.60,NW,316,0.0,0.0,88,0.00,,SKC,0.00,VWS V13.01,2013-09-17 12:12:00,
2013-09-17 08:17:00,38.1,34.9,30.60,NW,316,0.0,0.0,88,0.00,,SKC,0.00,VWS V13.01,2013-09-17 12:17:00,
2013-09-17 08:22:00,38.8,35.6,30.60,NW,316,0.0,0.0,88,0.00,,SKC,0.00,VWS V13.01,2013-09-17 12:22:00,
2013-09-17 08:27:00,39.3,36.0,30.60,NW,316,0.0,0.0,88,0.00,,SKC,0.00,VWS V13.01,2013-09-17 12:27:00,
2013-09-17 08:32:00,39.9,36.6,30.60,NW,316,0.0,0.0,88,0.00,,SKC,0.00,VWS V13.01,2013-09-17 12:32:00,
2013-09-17 08:37:00,40.6,37.3,30.61,NW,316,0.0,0.0,88,0.00,,SKC,0.00,VWS V13.01,2013-09-17 12:37:00,
2013-09-17 08:42:00,41.1,37.8,30.61,NW,316,0.0,0.0,88,0.00,,SKC,0.00,VWS V13.01,2013-09-17 12:42:00,
2013-09-17 08:47:00,41.7,38.7,30.61,NW,316,0.0,0.0,89,0.00,,SKC,0.00,VWS V13.01,2013-09-17 12:47:00,
2013-09-17 08:52:00,42.6,39.6,30.61,NW,316,0.0,0.0,89,0.00,,SKC,0.00,VWS V13.01,2013-09-17 12:52:00,
2013-09-17 08:57:00,43.3,40.3,30.62,NW,316,0.0,0.0,89,0.00,,SKC,0.00,VWS V13.01,2013-09-17 12:57:00,
2013-09-17 09:02:00,44.0,41.0,30.62,NW,316,0.0,0.0,89,0.00,,SKC,0.00,VWS V13.01,2013-09-17 13:02:00,
2013-09-17 09:07:00,44.7,41.7,30.62,NW,316,0.0,0.0,89,0.00,,SKC,0.00,VWS V13.01,2013-09-17 13:07:00,
2013-09-17 09:12:00,45.3,42.3,30.63,NW,316,0.0,0.0,89,0.00,,SKC,0.00,VWS V13.01,2013-09-17 13:12:00,
2013-09-17 09:17:00,45.5,42.5,30.63,NW,316,0.0,0.0,89,0.00,,SKC,0.00,VWS V13.01,2013-09-17 13:17:00,
2013-09-17 09:22:00,46.2,42.8,30.63,NW,316,0.0,0.0,88,0.00,,SKC,0.00,VWS V13.01,2013-09-17 13:22:00,
2013-09-17 09:27:00,46.5,43.4,30.63,NNW,338,0.6,0.6,89,0.00,,SKC,0.00,VWS V13.01,2013-09-17 13:27:00,
2013-09-17 09:32:00,46.7,43.6,30.63,NNW,338,0.0,0.0,89,0.00,,SKC,0.00,VWS V13.01,2013-09-17 13:32:00,
2013-09-17 09:37:00,47.4,44.0,30.63,South,181,0.0,0.0,88,0.00,,SKC,0.00,VWS V13.01,2013-09-17 13:37:00,
2013-09-17 09:42:00,48.0,44.6,30.63,South,181,0.0,0.0,88,0.00,,SKC,0.00,VWS V13.01,2013-09-17 13:42:00,
2013-09-17 09:47:00,48.5,45.1,30.63,South,181,0.0,0.0,88,0.00,,SKC,0.00,VWS V13.01,2013-09-17 13:47:00,
2013-09-17 09:52:00,48.9,45.2,30.63,SW,226,0.0,0.0,87,0.00,,SKC,0.00,VWS V13.01,2013-09-17 13:52:00,
2013-09-17 09:57:00,49.2,45.5,30.64,West,271,0.0,0.0,87,0.00,,SKC,0.00,VWS V13.01,2013-09-17 13:57:00,
2013-09-17 10:02:00,49.4,45.1,30.63,NNW,338,0.0,0.0,85,0.00,,SKC,0.00,VWS V13.01,2013-09-17 14:02:00,
2013-09-17 10:07:00,49.8,44.8,30.63,North,1,0.0,0.0,83,0.00,,SKC,0.00,VWS V13.01,2013-09-17 14:07:00,
2013-09-17 10:12:00,50.0,45.0,30.63,NW,316,0.0,0.0,83,0.00,,SKC,0.00,VWS V13.01,2013-09-17 14:12:00,
2013-09-17 10:17:00,50.3,45.0,30.63,NW,316,0.0,0.0,82,0.00,,SKC,0.00,VWS V13.01,2013-09-17 14:17:00,
2013-09-17 10:22:00,50.5,45.2,30.63,NW,316,0.0,0.0,82,0.00,,SKC,0.00,VWS V13.01,2013-09-17 14:22:00,
2013-09-17 10:27:00,50.9,45.6,30.63,ENE,68,0.6,0.6,82,0.00,,SKC,0.00,VWS V13.01,2013-09-17 14:27:00,
2013-09-17 10:32:00,51.0,45.4,30.63,NNW,338,0.0,0.0,81,0.00,,SKC,0.00,VWS V13.01,2013-09-17 14:32:00,
2013-09-17 10:37:00,51.2,45.6,30.62,NW,316,0.0,0.0,81,0.00,,SKC,0.00,VWS V13.01,2013-09-17 14:37:00,
2013-09-17 10:42:00,51.4,45.8,30.62,NE,46,0.0,0.0,81,0.00,,SKC,0.00,VWS V13.01,2013-09-17 14:42:00,
2013-09-17 10:47:00,52.1,46.5,30.63,North,1,0.0,0.0,81,0.00,,SKC,0.00,VWS V13.01,2013-09-17 14:47:00,
2013-09-17 10:52:00,52.3,45.7,30.63,West,271,0.0,0.0,78,0.00,,SKC,0.00,VWS V13.01,2013-09-17 14:52:00,
2013-09-17 10:57:00,52.3,45.7,30.63,NNW,338,0.0,0.0,78,0.00,,SKC,0.00,VWS V13.01,2013-09-17 14:57:00,
2013-09-17 11:02:00,52.5,45.8,30.62,West,271,0.0,0.0,78,0.00,,SKC,0.00,VWS V13.01,2013-09-17 15:02:00,
2013-09-17 11:07:00,52.8,45.5,30.62,North,1,0.6,0.8,76,0.00,,SKC,0.00,VWS V13.01,2013-09-17 15:07:00,
2013-09-17 11:12:00,52.8,45.5,30.62,NNW,338,0.0,0.6,76,0.00,,SKC,0.00,VWS V13.01,2013-09-17 15:12:00,
2013-09-17 11:17:00,52.8,45.5,30.62,NNW,338,0.0,0.0,76,0.00,,SKC,0.00,VWS V13.01,2013-09-17 15:17:00,
2013-09-17 11:22:00,53.2,45.8,30.61,SW,226,0.0,0.0,76,0.00,,SKC,0.00,VWS V13.01,2013-09-17 15:22:00,
2013-09-17 11:27:00,53.4,46.0,30.61,South,181,0.0,0.0,76,0.00,,SKC,0.00,VWS V13.01,2013-09-17 15:27:00,
2013-09-17 11:32:00,53.6,45.5,30.61,West,271,0.0,0.0,74,0.00,,SKC,0.00,VWS V13.01,2013-09-17 15:32:00,
2013-09-17 11:37:00,53.7,45.3,30.61,ENE,68,0.0,0.0,73,0.00,,SKC,0.00,VWS V13.01,2013-09-17 15:37:00,
2013-09-17 11:42:00,54.1,45.7,30.61,NNE,24,0.0,0.0,73,0.00,,SKC,0.00,VWS V13.01,2013-09-17 15:42:00,
2013-09-17 11:47:00,54.5,46.0,30.61,SW,226,0.0,0.0,73,0.00,,SKC,0.00,VWS V13.01,2013-09-17 15:47:00,
2013-09-17 11:52:00,54.6,45.0,30.61,NW,316,0.0,0.0,70,0.00,,SKC,0.00,VWS V13.01,2013-09-17 15:52:00,
2013-09-17 11:57:00,54.6,44.3,30.61,NW,316,1.7,1.7,68,0.00,,SKC,0.00,VWS V13.01,2013-09-17 15:57:00,
2013-09-17 12:02:00,54.8,44.5,30.61,NW,316,0.0,0.0,68,0.00,,SKC,0.00,VWS V13.01,2013-09-17 16:02:00,
2013-09-17 12:07:00,55.0,44.3,30.61,East,91,1.7,1.7,67,0.00,,SKC,0.00,VWS V13.01,2013-09-17 16:07:00,
2013-09-17 12:12:00,55.0,44.3,30.61,SE,136,0.0,0.0,67,0.00,,SKC,0.00,VWS V13.01,2013-09-17 16:12:00,
2013-09-17 12:17:00,55.2,44.0,30.60,NW,316,3.3,3.3,66,0.00,,SKC,0.00,VWS V13.01,2013-09-17 16:17:00,
2013-09-17 12:22:00,55.2,43.7,30.60,ENE,68,1.1,1.1,65,0.00,,SKC,0.00,VWS V13.01,2013-09-17 16:22:00,
2013-09-17 12:27:00,55.5,43.9,30.60,NNW,338,1.7,1.7,65,0.00,,SKC,0.00,VWS V13.01,2013-09-17 16:27:00,
2013-09-17 12:32:00,55.5,43.5,30.60,SE,136,2.2,2.2,64,0.00,,SKC,0.00,VWS V13.01,2013-09-17 16:32:00,
2013-09-17 12:37:00,55.7,44.1,30.60,NNE,24,0.0,0.0,65,0.00,,SKC,0.00,VWS V13.01,2013-09-17 16:37:00,
2013-09-17 12:42:00,55.9,43.1,30.59,NNW,338,1.5,4.0,62,0.00,,SKC,0.00,VWS V13.01,2013-09-17 16:42:00,
2013-09-17 12:47:00,55.9,43.5,30.60,ENE,68,0.0,0.0,63,0.00,,SKC,0.00,VWS V13.01,2013-09-17 16:47:00,
2013-09-17 12:52:00,56.1,44.1,30.59,West,271,0.8,0.8,64,0.00,,SKC,0.00,VWS V13.01,2013-09-17 16:52:00,
2013-09-17 12:57:00,56.1,43.3,30.59,WNW,294,0.0,0.0,62,0.00,,SKC,0.00,VWS V13.01,2013-09-17 16:57:00,
2013-09-17 13:02:00,56.1,42.8,30.59,NW,316,0.0,0.0,61,0.00,,SKC,0.00,VWS V13.01,2013-09-17 17:02:00,
2013-09-17 13:07:00,56.1,42.8,30.58,NE,46,0.0,0.0,61,0.00,,SKC,0.00,VWS V13.01,2013-09-17 17:07:00,
2013-09-17 13:12:00,56.1,42.8,30.59,SSE,158,0.0,0.0,61,0.00,,SKC,0.00,VWS V13.01,2013-09-17 17:12:00,
2013-09-17 13:17:00,56.1,42.0,30.58,NNW,338,0.0,0.0,59,0.00,,SKC,0.00,VWS V13.01,2013-09-17 17:17:00,
2013-09-17 13:22:00,56.3,42.2,30.58,NNW,338,0.0,0.0,59,0.00,,SKC,0.00,VWS V13.01,2013-09-17 17:22:00,
2013-09-17 13:27:00,56.4,41.4,30.58,North,1,0.0,1.7,57,0.00,,SKC,0.00,VWS V13.01,2013-09-17 17:27:00,
2013-09-17 13:32:00,56.4,41.8,30.57,WNW,294,0.0,0.0,58,0.00,,SKC,0.00,VWS V13.01,2013-09-17 17:32:00,
2013-09-17 13:37:00,56.8,43.1,30.57,West,271,0.0,0.0,60,0.00,,SKC,0.00,VWS V13.01,2013-09-17 17:37:00,
2013-09-17 13:42:00,56.8,41.8,30.57,NNE,24,0.0,0.0,57,0.00,,SKC,0.00,VWS V13.01,2013-09-17 17:42:00,
2013-09-17 13:47:00,57.0,42.8,30.57,SE,136,0.0,0.0,59,0.00,,SKC,0.00,VWS V13.01,2013-09-17 17:47:00,
2013-09-17 13:52:00,57.0,42.4,30.56,NW,316,0.0,0.0,58,0.00,,SKC,0.00,VWS V13.01,2013-09-17 17:52:00,
2013-09-17 13:57:00,57.3,42.7,30.56,ESE,114,2.9,2.9,58,0.00,,SKC,0.00,VWS V13.01,2013-09-17 17:57:00,
2013-09-17 14:02:00,57.3,42.7,30.56,NW,316,1.1,1.1,58,0.00,,SKC,0.00,VWS V13.01,2013-09-17 18:02:00,
2013-09-17 14:07:00,57.5,41.9,30.56,NW,316,0.0,0.0,56,0.00,,SKC,0.00,VWS V13.01,2013-09-17 18:07:00,
2013-09-17 14:12:00,57.7,41.7,30.56,NNW,338,1.1,1.1,55,0.00,,SKC,0.00,VWS V13.01,2013-09-17 18:12:00,
2013-09-17 14:18:00,57.9,42.8,30.56,WSW,248,0.8,0.8,57,0.00,,SKC,0.00,VWS V13.01,2013-09-17 18:18:00,
2013-09-17 14:23:00,57.9,41.4,30.56,WNW,294,0.0,0.0,54,0.00,,SKC,0.00,VWS V13.01,2013-09-17 18:23:00,
2013-09-17 14:28:00,58.2,42.1,30.55,East,91,0.0,0.0,55,0.00,,SKC,0.00,VWS V13.01,2013-09-17 18:28:00,
2013-09-17 14:33:00,58.2,41.7,30.55,WNW,294,0.0,0.0,54,0.00,,SKC,0.00,VWS V13.01,2013-09-17 18:33:00,
2013-09-17 14:37:00,58.8,41.7,30.55,NW,316,0.0,0.0,53,0.00,,SKC,0.00,VWS V13.01,2013-09-17 18:37:00,
2013-09-17 14:43:00,58.8,42.2,30.55,NW,316,2.0,2.0,54,0.00,,SKC,0.00,VWS V13.01,2013-09-17 18:43:00,
2013-09-17 14:48:00,58.8,41.7,30.55,NNW,338,4.2,4.2,53,0.00,,SKC,0.00,VWS V13.01,2013-09-17 18:48:00,
2013-09-17 14:53:00,58.8,41.2,30.55,NW,316,0.0,0.0,52,0.00,,SKC,0.00,VWS V13.01,2013-09-17 18:53:00,
2013-09-17 14:58:00,58.8,41.7,30.54,West,271,1.3,1.3,53,0.00,,SKC,0.00,VWS V13.01,2013-09-17 18:58:00,
2013-09-17 15:03:00,58.8,41.2,30.54,NNW,338,1.5,1.5,52,0.00,,SKC,0.00,VWS V13.01,2013-09-17 19:03:00,
2013-09-17 15:08:00,59.1,41.5,30.54,NW,316,0.0,0.0,52,0.00,,SKC,0.00,VWS V13.01,2013-09-17 19:08:00,
2013-09-17 15:13:00,59.3,41.7,30.54,WNW,294,0.4,0.4,52,0.00,,SKC,0.00,VWS V13.01,2013-09-17 19:13:00,
2013-09-17 15:18:00,59.5,41.9,30.53,SE,136,0.0,0.0,52,0.00,,SKC,0.00,VWS V13.01,2013-09-17 19:18:00,
2013-09-17 15:23:00,59.5,40.9,30.53,NNW,338,0.0,0.0,50,0.00,,SKC,0.00,VWS V13.01,2013-09-17 19:23:00,
2013-09-17 15:28:00,59.5,41.4,30.53,SSE,158,0.0,0.0,51,0.00,,SKC,0.00,VWS V13.01,2013-09-17 19:28:00,
2013-09-17 15:33:00,59.5,41.4,30.52,North,1,0.0,0.0,51,0.00,,SKC,0.00,VWS V13.01,2013-09-17 19:33:00,
2013-09-17 15:38:00,59.5,41.9,30.52,NNW,338,0.0,0.0,52,0.00,,SKC,0.00,VWS V13.01,2013-09-17 19:38:00,
2013-09-17 15:43:00,59.7,42.6,30.52,ENE,68,0.0,0.0,53,0.00,,SKC,0.00,VWS V13.01,2013-09-17 19:43:00,
2013-09-17 15:48:00,59.7,42.1,30.51,NNW,338,0.4,0.4,52,0.00,,SKC,0.00,VWS V13.01,2013-09-17 19:48:00,
2013-09-17 15:53:00,59.5,41.4,30.51,NW,316,0.0,0.0,51,0.00,,SKC,0.00,VWS V13.01,2013-09-17 19:53:00,
2013-09-17 15:58:00,59.7,41.0,30.51,WNW,294,0.0,0.0,50,0.00,,SKC,0.00,VWS V13.01,2013-09-17 19:58:00,
2013-09-17 16:03:00,59.7,41.0,30.51,ESE,114,0.0,0.0,50,0.00,,SKC,0.00,VWS V13.01,2013-09-17 20:03:00,
2013-09-17 16:08:00,59.9,42.2,30.51,SE,136,0.0,0.0,52,0.00,,SKC,0.00,VWS V13.01,2013-09-17 20:08:00,
2013-09-17 16:13:00,59.9,42.2,30.51,ENE,68,0.0,0.0,52,0.00,,SKC,0.00,VWS V13.01,2013-09-17 20:13:00,
2013-09-17 16:18:00,60.0,42.3,30.51,South,181,0.0,0.0,52,0.00,,SKC,0.00,VWS V13.01,2013-09-17 20:18:00,
2013-09-17 16:23:00,60.0,41.8,30.50,WNW,294,0.0,0.0,51,0.00,,SKC,0.00,VWS V13.01,2013-09-17 20:23:00,
2013-09-17 16:28:00,60.0,41.8,30.50,NW,316,0.0,0.0,51,0.00,,SKC,0.00,VWS V13.01,2013-09-17 20:28:00,
2013-09-17 16:33:00,60.0,42.3,30.50,NNE,24,0.0,0.0,52,0.00,,SKC,0.00,VWS V13.01,2013-09-17 20:33:00,
2013-09-17 16:38:00,60.0,41.3,30.50,WNW,294,0.0,0.0,50,0.00,,SKC,0.00,VWS V13.01,2013-09-17 20:38:00,
2013-09-17 16:43:00,60.0,41.8,30.50,WNW,294,0.0,0.0,51,0.00,,SKC,0.00,VWS V13.01,2013-09-17 20:43:00,
2013-09-17 16:48:00,60.0,41.8,30.50,WNW,294,0.0,0.0,51,0.00,,SKC,0.00,VWS V13.01,2013-09-17 20:48:00,
2013-09-17 16:53:00,60.0,41.8,30.50,West,271,0.0,0.0,51,0.00,,SKC,0.00,VWS V13.01,2013-09-17 20:53:00,
2013-09-17 16:58:00,60.0,41.8,30.50,SE,136,0.0,0.0,51,0.00,,SKC,0.00,VWS V13.01,2013-09-17 20:58:00,
2013-09-17 17:03:00,60.2,42.0,30.50,SSW,204,0.0,0.0,51,0.00,,SKC,0.00,VWS V13.01,2013-09-17 21:03:00,
2013-09-17 17:08:00,60.2,42.0,30.50,SW,226,0.0,0.0,51,0.00,,SKC,0.00,VWS V13.01,2013-09-17 21:08:00,
2013-09-17 17:13:00,60.0,41.3,30.49,SE,136,0.0,0.0,50,0.00,,SKC,0.00,VWS V13.01,2013-09-17 21:13:00,
2013-09-17 17:18:00,60.0,41.8,30.49,SE,136,0.0,0.0,51,0.00,,SKC,0.00,VWS V13.01,2013-09-17 21:18:00,
2013-09-17 17:23:00,60.0,41.8,30.49,SE,136,0.0,0.0,51,0.00,,SKC,0.00,VWS V13.01,2013-09-17 21:23:00,
2013-09-17 17:28:00,60.0,42.3,30.49,SE,136,0.0,0.0,52,0.00,,SKC,0.00,VWS V13.01,2013-09-17 21:28:00,
2013-09-17 17:33:00,60.0,42.3,30.48,ESE,114,0.0,0.0,52,0.00,,SKC,0.00,VWS V13.01,2013-09-17 21:33:00,
2013-09-17 17:38:00,60.0,42.8,30.48,South,181,0.0,0.0,53,0.00,,SKC,0.00,VWS V13.01,2013-09-17 21:38:00,
2013-09-17 17:43:00,59.9,42.7,30.48,SE,136,2.9,2.9,53,0.00,,SKC,0.00,VWS V13.01,2013-09-17 21:43:00,
2013-09-17 17:48:00,59.9,42.7,30.48,SSE,158,0.0,0.0,53,0.00,,SKC,0.00,VWS V13.01,2013-09-17 21:48:00,
2013-09-17 17:53:00,59.7,42.6,30.48,SSE,158,1.3,1.3,53,0.00,,SKC,0.00,VWS V13.01,2013-09-17 21:53:00,
2013-09-17 17:58:00,59.7,42.6,30.48,SE,136,0.0,0.0,53,0.00,,SKC,0.00,VWS V13.01,2013-09-17 21:58:00,
2013-09-17 18:03:00,59.5,42.9,30.48,SE,136,0.0,0.0,54,0.00,,SKC,0.00,VWS V13.01,2013-09-17 22:03:00,
2013-09-17 18:08:00,58.8,42.2,30.48,SSE,158,0.0,0.0,54,0.00,,SKC,0.00,VWS V13.01,2013-09-17 22:08:00,
2013-09-17 18:13:00,58.8,42.2,30.48,SSE,158,0.0,0.0,54,0.00,,SKC,0.00,VWS V13.01,2013-09-17 22:13:00,
2013-09-17 18:18:00,58.6,42.5,30.48,SSE,158,0.0,0.0,55,0.00,,SKC,0.00,VWS V13.01,2013-09-17 22:18:00,
2013-09-17 18:23:00,58.2,42.6,30.47,SSE,158,0.0,0.0,56,0.00,,SKC,0.00,VWS V13.01,2013-09-17 22:23:00,
2013-09-17 18:28:00,57.9,42.8,30.47,SSE,158,0.0,0.0,57,0.00,,SKC,0.00,VWS V13.01,2013-09-17 22:28:00,
2013-09-17 18:33:00,57.5,42.8,30.47,SSE,158,0.0,0.0,58,0.00,,SKC,0.00,VWS V13.01,2013-09-17 22:33:00,
2013-09-17 18:38:00,57.3,43.5,30.47,SSE,158,0.0,0.0,60,0.00,,SKC,0.00,VWS V13.01,2013-09-17 22:38:00,
2013-09-17 18:43:00,56.8,43.9,30.47,SSE,158,0.0,0.0,62,0.00,,SKC,0.00,VWS V13.01,2013-09-17 22:43:00,
2013-09-17 18:48:00,56.3,44.3,30.47,SSE,158,0.0,0.0,64,0.00,,SKC,0.00,VWS V13.01,2013-09-17 22:48:00,
2013-09-17 18:53:00,55.9,44.3,30.48,SSE,158,0.0,0.0,65,0.00,,SKC,0.00,VWS V13.01,2013-09-17 22:53:00,
2013-09-17 18:58:00,55.2,44.0,30.47,SSE,158,0.0,0.0,66,0.00,,SKC,0.00,VWS V13.01,2013-09-17 22:58:00,
2013-09-17 19:03:00,54.8,43.7,30.47,SSE,158,0.0,0.0,66,0.00,,SKC,0.00,VWS V13.01,2013-09-17 23:03:00,
2013-09-17 19:08:00,54.3,43.6,30.48,SSE,158,0.0,0.0,67,0.00,,SKC,0.00,VWS V13.01,2013-09-17 23:08:00,
2013-09-17 19:13:00,53.7,43.4,30.47,SSE,158,0.0,0.0,68,0.00,,SKC,0.00,VWS V13.01,2013-09-17 23:13:00,
2013-09-17 19:18:00,53.2,42.9,30.47,SSE,158,0.0,0.0,68,0.00,,SKC,0.00,VWS V13.01,2013-09-17 23:18:00,
2013-09-17 19:23:00,52.7,42.5,30.47,SSE,158,0.0,0.0,68,0.00,,SKC,0.00,VWS V13.01,2013-09-17 23:23:00,
2013-09-17 19:28:00,52.1,42.2,30.48,SSE,158,0.0,0.0,69,0.00,,SKC,0.00,VWS V13.01,2013-09-17 23:28:00,
2013-09-17 19:33:00,51.6,42.2,30.48,SSE,158,0.0,0.0,70,0.00,,SKC,0.00,VWS V13.01,2013-09-17 23:33:00,
2013-09-17 19:38:00,51.4,42.0,30.48,SSE,158,0.0,0.0,70,0.00,,SKC,0.00,VWS V13.01,2013-09-17 23:38:00,
2013-09-17 19:43:00,50.9,41.8,30.48,SSE,158,0.0,0.0,71,0.00,,SKC,0.00,VWS V13.01,2013-09-17 23:43:00,
2013-09-17 19:48:00,50.7,41.7,30.48,SSE,158,0.0,0.0,71,0.00,,SKC,0.00,VWS V13.01,2013-09-17 23:48:00,
2013-09-17 19:53:00,50.3,41.3,30.48,SSE,158,0.0,0.0,71,0.00,,SKC,0.00,VWS V13.01,2013-09-17 23:53:00,
2013-09-17 19:58:00,49.8,40.8,30.48,SSE,158,0.0,0.0,71,0.00,,SKC,0.00,VWS V13.01,2013-09-17 23:58:00,
2013-09-17 20:03:00,49.6,41.0,30.48,SSE,158,0.0,0.0,72,0.00,,SKC,0.00,VWS V13.01,2013-09-18 00:03:00,
2013-09-17 20:08:00,49.1,40.5,30.48,SSE,158,0.0,0.0,72,0.00,,SKC,0.00,VWS V13.01,2013-09-18 00:08:00,
2013-09-17 20:13:00,48.9,40.6,30.48,SSE,158,0.0,0.0,73,0.00,,SKC,0.00,VWS V13.01,2013-09-18 00:13:00,
2013-09-17 20:18:00,48.7,40.5,30.48,SSE,158,0.0,0.0,73,0.00,,SKC,0.00,VWS V13.01,2013-09-18 00:18:00,
2013-09-17 20:23:00,48.3,40.1,30.48,SSE,158,0.0,0.0,73,0.00,,SKC,0.00,VWS V13.01,2013-09-18 00:23:00,
2013-09-17 20:28:00,48.0,40.1,30.48,SSE,158,0.0,0.0,74,0.00,,SKC,0.00,VWS V13.01,2013-09-18 00:28:00,
2013-09-17 20:33:00,47.8,40.3,30.48,SSE,158,0.0,0.0,75,0.00,,SKC,0.00,VWS V13.01,2013-09-18 00:33:00,
2013-09-17 20:38:00,47.4,39.9,30.48,SSE,158,0.0,0.0,75,0.00,,SKC,0.00,VWS V13.01,2013-09-18 00:38:00,
2013-09-17 20:43:00,47.1,39.9,30.48,SSE,158,0.0,0.0,76,0.00,,SKC,0.00,VWS V13.01,2013-09-18 00:43:00,
2013-09-17 20:48:00,47.1,39.9,30.48,SSE,158,0.0,0.0,76,0.00,,SKC,0.00,VWS V13.01,2013-09-18 00:48:00,
2013-09-17 20:53:00,46.7,39.5,30.48,SSE,158,0.0,0.0,76,0.00,,SKC,0.00,VWS V13.01,2013-09-18 00:53:00,
2013-09-17 20:58:00,46.5,39.4,30.48,SSE,158,0.0,0.0,76,0.00,,SKC,0.00,VWS V13.01,2013-09-18 00:58:00,
2013-09-17 21:03:00,46.4,39.3,30.48,SSE,158,0.0,0.0,76,0.00,,SKC,0.00,VWS V13.01,2013-09-18 01:03:00,
2013-09-17 21:08:00,46.2,39.4,30.48,SSE,158,0.0,0.0,77,0.00,,SKC,0.00,VWS V13.01,2013-09-18 01:08:00,
2013-09-17 21:13:00,46.2,39.4,30.48,SSE,158,0.0,0.0,77,0.00,,SKC,0.00,VWS V13.01,2013-09-18 01:13:00,
2013-09-17 21:18:00,46.0,39.5,30.47,SSE,158,0.0,0.0,78,0.00,,SKC,0.00,VWS V13.01,2013-09-18 01:18:00,
2013-09-17 21:23:00,46.0,39.5,30.47,SSE,158,0.0,0.0,78,0.00,,SKC,0.00,VWS V13.01,2013-09-18 01:23:00,
2013-09-17 21:28:00,45.6,39.2,30.47,SSE,158,0.0,0.0,78,0.00,,SKC,0.00,VWS V13.01,2013-09-18 01:28:00,
2013-09-17 21:33:00,45.6,39.5,30.47,SSE,158,0.0,0.0,79,0.00,,SKC,0.00,VWS V13.01,2013-09-18 01:33:00,
2013-09-17 21:38:00,45.5,39.4,30.47,SSE,158,0.0,0.0,79,0.00,,SKC,0.00,VWS V13.01,2013-09-18 01:38:00,
2013-09-17 21:43:00,45.3,39.2,30.47,SSE,158,0.0,0.0,79,0.00,,SKC,0.00,VWS V13.01,2013-09-18 01:43:00,
2013-09-17 21:48:00,45.1,39.0,30.48,SSE,158,0.0,0.0,79,0.00,,SKC,0.00,VWS V13.01,2013-09-18 01:48:00,
2013-09-17 21:53:00,44.9,38.8,30.47,SSE,158,0.0,0.0,79,0.00,,SKC,0.00,VWS V13.01,2013-09-18 01:53:00,
2013-09-17 21:58:00,44.9,39.1,30.47,SSE,158,0.0,0.0,80,0.00,,SKC,0.00,VWS V13.01,2013-09-18 01:58:00,
2013-09-17 22:03:00,44.9,39.1,30.47,SSE,158,0.0,0.0,80,0.00,,SKC,0.00,VWS V13.01,2013-09-18 02:03:00,
2013-09-17 22:08:00,44.7,38.9,30.47,SSE,158,0.0,0.0,80,0.00,,SKC,0.00,VWS V13.01,2013-09-18 02:08:00,
2013-09-17 22:13:00,44.6,38.8,30.47,SSE,158,0.0,0.0,80,0.00,,SKC,0.00,VWS V13.01,2013-09-18 02:13:00,
2013-09-17 22:18:00,44.4,38.6,30.47,SSE,158,0.0,0.0,80,0.00,,SKC,0.00,VWS V13.01,2013-09-18 02:18:00,
2013-09-17 22:23:00,44.4,38.6,30.47,SSE,158,0.0,0.0,80,0.00,,SKC,0.00,VWS V13.01,2013-09-18 02:23:00,
2013-09-17 22:28:00,44.4,38.9,30.47,SSE,158,0.0,0.0,81,0.00,,SKC,0.00,VWS V13.01,2013-09-18 02:28:00,
2013-09-17 22:33:00,44.2,38.8,30.47,SSE,158,0.0,0.0,81,0.00,,SKC,0.00,VWS V13.01,2013-09-18 02:33:00,
2013-09-17 22:38:00,44.0,38.5,30.47,SSE,158,0.0,0.0,81,0.00,,SKC,0.00,VWS V13.01,2013-09-18 02:38:00,
2013-09-17 22:43:00,43.8,38.4,30.47,SSE,158,0.0,0.0,81,0.00,,SKC,0.00,VWS V13.01,2013-09-18 02:43:00,
2013-09-17 22:48:00,43.7,38.3,30.47,SSE,158,0.0,0.0,81,0.00,,SKC,0.00,VWS V13.01,2013-09-18 02:48:00,
2013-09-17 22:53:00,43.7,38.6,30.47,SSE,158,0.0,0.0,82,0.00,,SKC,0.00,VWS V13.01,2013-09-18 02:53:00,
2013-09-17 22:58:00,43.5,38.4,30.47,SSE,158,0.0,0.0,82,0.00,,SKC,0.00,VWS V13.01,2013-09-18 02:58:00,
2013-09-17 23:03:00,43.5,38.4,30.47,SSE,158,0.0,0.0,82,0.00,,SKC,0.00,VWS V13.01,2013-09-18 03:03:00,
2013-09-17 23:08:00,43.5,38.4,30.47,SSE,158,0.0,0.0,82,0.00,,SKC,0.00,VWS V13.01,2013-09-18 03:08:00,
2013-09-17 23:13:00,43.3,38.2,30.47,SSE,158,0.0,0.0,82,0.00,,SKC,0.00,VWS V13.01,2013-09-18 03:13:00,
2013-09-17 23:19:00,43.3,38.2,30.47,SSE,158,0.0,0.0,82,0.00,,SKC,0.00,VWS V13.01,2013-09-18 03:19:00,
2013-09-17 23:24:00,43.1,38.0,30.47,SSE,158,0.0,0.0,82,0.00,,SKC,0.00,VWS V13.01,2013-09-18 03:24:00,
2013-09-17 23:29:00,42.9,37.8,30.47,SSE,158,0.0,0.0,82,0.00,,SKC,0.00,VWS V13.01,2013-09-18 03:29:00,
2013-09-17 23:34:00,42.9,37.8,30.47,SSE,158,0.0,0.0,82,0.00,,SKC,0.00,VWS V13.01,2013-09-18 03:34:00,
2013-09-17 23:39:00,42.6,37.5,30.47,SSE,158,0.0,0.0,82,0.00,,SKC,0.00,VWS V13.01,2013-09-18 03:39:00,
2013-09-17 23:44:00,42.6,37.8,30.47,SSE,158,0.0,0.0,83,0.00,,SKC,0.00,VWS V13.01,2013-09-18 03:44:00,
2013-09-17 23:49:00,42.4,37.3,30.47,SSE,158,0.0,0.0,82,0.00,,SKC,0.00,VWS V13.01,2013-09-18 03:49:00,
2013-09-17 23:54:00,42.4,37.6,30.47,SSE,158,0.0,0.0,83,0.00,,SKC,0.00,VWS V13.01,2013-09-18 03:54:00,
2013-09-17 23:59:00,42.0,37.2,30.47,SSE,158,0.0,0.0,83,0.00,,SKC,0.00,VWS V13.01,2013-09-18 03:59:00,